TimePST,TemperatureF,Dew PointF,Humidity,Sea Level PressureIn,VisibilityMPH,Wind Direction,Wind SpeedMPH,Gust SpeedMPH,PrecipitationIn,Events,Conditions,WindDirDegrees,DateUTC
12:56 AM,45.0,23.0,42,29.97,10.0,SSW,11.5,-,N/A,,Clear,210,2012-12-08 08:56:00
1:56 AM,43.9,23.0,44,29.97,10.0,SSW,8.1,-,N/A,,Clear,200,2012-12-08 09:56:00
2:56 AM,43.0,22.1,44,29.97,10.0,SSW,11.5,-,N/A,,Clear,200,2012-12-08 10:56:00
3:56 AM,43.9,22.1,42,29.96,10.0,SSW,13.8,-,N/A,,Clear,210,2012-12-08 11:56:00
4:56 AM,43.0,22.1,44,29.98,10.0,SSW,11.5,-,N/A,,Clear,210,2012-12-08 12:56:00
5:56 AM,43.9,21.0,40,29.98,10.0,SW,15.0,-,N/A,,Clear,220,2012-12-08 13:56:00
6:56 AM,43.9,21.0,40,30.00,10.0,SW,13.8,-,N/A,,Clear,220,2012-12-08 14:56:00
7:56 AM,46.9,21.0,36,29.99,10.0,SW,11.5,-,N/A,,Clear,220,2012-12-08 15:56:00
8:56 AM,50.0,21.0,32,30.00,10.0,SW,11.5,-,N/A,,Clear,220,2012-12-08 16:56:00
9:56 AM,56.8,21.0,25,30.00,10.0,WSW,8.1,-,N/A,,Clear,240,2012-12-08 17:56:00
10:56 AM,61.9,19.0,19,29.97,10.0,SW,6.9,-,N/A,,Clear,230,2012-12-08 18:56:00
11:56 AM,63.9,21.0,19,29.94,10.0,Calm,Calm,-,N/A,,Clear,0,2012-12-08 19:56:00
12:56 PM,65.8,21.0,18,29.93,10.0,ENE,5.8,-,N/A,,Clear,60,2012-12-08 20:56:00
1:56 PM,65.8,17.1,15,29.92,10.0,NNE,8.1,-,N/A,,Clear,20,2012-12-08 21:56:00
2:56 PM,64.9,19.0,17,29.92,10.0,NE,5.8,-,N/A,,Clear,50,2012-12-08 22:56:00
3:56 PM,63.9,21.0,19,29.91,10.0,Calm,Calm,-,N/A,,Clear,0,2012-12-08 23:56:00
4:56 PM,56.8,25.2,30,29.92,10.0,Calm,Calm,-,N/A,,Clear,0,2012-12-09 00:56:00
6:56 PM,50.0,15.1,25,29.95,10.0,SSW,9.2,-,N/A,,Clear,210,2012-12-09 02:56:00
7:56 PM,50.0,14.0,24,29.95,10.0,SSW,8.1,-,N/A,,Clear,200,2012-12-09 03:56:00
8:56 PM,48.9,14.0,25,29.96,10.0,SSW,11.5,-,N/A,,Clear,210,2012-12-09 04:56:00
9:56 PM,50.0,14.0,24,29.95,10.0,SW,11.5,-,N/A,,Clear,220,2012-12-09 05:56:00
11:56 PM,50.9,15.1,24,29.95,10.0,South,9.2,-,N/A,,Clear,190,2012-12-09 07:56:00